Temperature
16 15 14 14 14 13 13 13 13 13 13 13 13 13 12 12 13 12 12 12 12 12 12 12 12 12 12 12 12 12 12 12 13 13 12 12 12 12 12 12 13 13 13
18 16 14 14 14 13 13 13 13 13 13 12 12 12 12 12 12 12 12 12 12 12 12 12 12 11 11 11 11 12 12 12 13 13 12 12 11 11 11 11 12 12 12
17 16 14 14 14 13 13 13 13 13 12 12 12 12 12 12 12 12 12 11 11 11 11 11 12 11 11 11 11 12 12 12 12 12 12 11 11 10 10 10 11 11 11
17 16 15 14 14 13 13 13 13 12 12 12 12 12 12 11 11 11 11 11 12 12 11 11 12 11 11 11 11 12 12 12 12 12 11 11 10 10 10 10 10 10 10
17 16 15 14 14 13 13 13 12 12 12 12 12 12 11 11 11 11 11 11 12 12 12 12 12 11 11 11 11 11 12 12 11 11 11 10 10 9 9 10 10 10 10
17 16 15 14 14 13 13 13 12 12 12 12 12 11 11 11 11 11 11 12 12 12 12 12 11 11 11 11 11 11 11 11 11 11 11 10 10 9 9 9 9 9 9
17 16 15 14 14 13 13 13 12 12 12 12 12 11 11 11 11 12 11 11 11 11 11 11 11 11 11 11 11 11 11 11 10 10 10 10 9 9 9 9 9 9 9
17 16 15 14 14 13 13 13 12 12 12 12 12 11 11 11 11 12 11 11 11 11 11 11 11 11 11 10 10 10 10 10 10 10 10 9 9 9 8 8 9 9 9
17 16 15 14 14 13 13 13 12 12 12 12 12 11 11 11 11 11 11 11 11 11 11 11 10 10 10 10 10 10 10 10 9 9 9 9 9 8 8 8 8 8 8
16 16 15 15 14 13 13 13 12 12 12 12 12 12 12 11 11 11 11 11 11 11 10 10 10 10 10 10 10 9 9 9 9 9 9 9 8 8 8 8 8 8 8
16 16 15 15 14 14 13 13 12 12 12 12 11 11 11 11 11 11 11 11 10 10 10 10 10 10 10 9 9 9 9 9 9 9 9 8 8 8 8 8 8 8 8
17 16 15 15 14 14 13 13 12 12 12 11 11 11 11 11 11 11 11 10 10 10 10 10 10 9 9 9 9 9 9 9 9 8 8 8 8 8 8 8 8 8 8
18 17 16 15 14 14 14 13 12 12 12 11 11 11 11 11 11 10 10 10 10 10 10 10 9 9 9 9 9 9 9 8 8 8 8 8 8 7 7 7 7 7 7
18 17 16 15 14 14 14 13 13 12 12 12 12 11 11 11 11 10 10 10 10 9 9 9 9 9 9 9 9 9 8 8 8 8 8 8 8 7 7 7 7 7 7
18 17 17 16 15 14 14 13 13 12 12 12 12 11 11 11 10 10 10 10 9 9 9 9 9 9 9 9 9 9 9 8 8 8 8 8 8 8 7 7 7 7 6
18 18 17 16 15 14 14 13 13 13 12 12 12 11 11 11 10 10 10 10 9 9 9 9 9 9 9 9 9 9 9 9 8 8 8 8 8 8 7 7 7 6 6
19 18 17 16 15 14 14 14 13 13 12 12 12 11 11 11 10 10 10 10 9 9 9 9 9 9 9 9 9 9 9 9 9 8 8 8 8 8 7 7 7 7 6
19 18 17 16 16 15 14 14 13 13 13 12 12 11 11 11 10 10 10 10 9 9 9 9 9 9 9 9 9 9 9 9 9 8 8 8 8 7 7 7 7 7 7
19 18 18 17 16 16 15 14 13 13 13 12 12 12 11 11 10 10 10 10 9 9 9 9 9 9 9 9 9 9 9 9 9 8 8 8 8 7 7 7 7 7 7
19 18 18 17 16 15 14 13 13 12 12 12 12 12 11 11 11 10 10 10 9 9 9 9 9 9 9 9 9 9 9 9 9 8 8 8 8 7 7 7 7 7 7
19 18 18 17 16 15 14 13 13 13 13 12 12 12 11 11 11 10 10 10 9 9 9 9 9 9 9 9 9 9 9 9 8 8 8 8 8 7 7 7 7 7 7
19 18 18 18 17 16 15 15 14 14 13 13 12 12 11 11 11 10 10 10 10 9 9 9 9 9 9 9 8 8 8 8 8 8 8 8 8 7 7 7 7 7 6
19 19 19 18 18 17 16 15 13 12 12 11 12 12 12 11 11 11 10 10 10 10 9 9 9 9 9 9 8 8 8 8 8 8 8 8 8 7 7 7 7 6 6
20 19 19 19 18 17 16 15 14 13 13 13 13 13 12 11 11 11 10 10 10 10 9 9 9 9 9 9 9 8 8 8 8 8 8 8 7 7 7 7 7 6 6
20 19 19 19 18 17 16 16 15 14 14 13 13 12 12 11 11 11 10 10 10 10 10 9 9 9 9 9 9 8 8 8 8 7 7 8 8 7 7 7 6 6 6
19 19 19 18 18 17 16 16 15 15 14 13 13 12 12 11 11 11 10 10 10 10 10 9 9 9 9 9 8 8 8 8 8 7 7 7 7 7 7 7 6 6 5
Wind_Speed
7 12 19 19 18 16 16 15 15 15 14 14 14 13 13 13 13 14 14 14 14 14 15 15 15 16 16 17 17 18 18 19 19 19 18 18 17 17 17 17 17 17 18
10 17 20 20 19 18 17 17 16 15 15 14 14 14 13 13 13 13 13 14 14 14 14 15 15 15 16 16 16 16 17 17 17 17 17 16 16 16 16 16 16 15 16
12 18 21 21 20 19 18 18 16 16 15 14 14 13 13 13 13 13 13 13 13 13 14 14 14 14 15 15 15 15 15 15 16 16 16 15 13 15 15 15 15 15 15
15 18 19 22 21 19 19 18 17 16 15 14 13 13 12 12 12 12 13 13 12 13 13 13 13 13 14 14 14 14 14 14 14 14 14 14 12 13 14 14 14 13 13
14 16 20 23 21 20 19 18 17 16 15 14 13 13 12 11 11 12 12 12 12 12 12 12 12 13 13 13 13 13 13 13 13 13 13 13 11 12 12 12 12 12 12
12 16 20 23 22 21 20 19 18 16 15 14 13 13 12 12 11 11 11 11 11 11 11 11 11 11 12 12 12 12 12 11 11 11 11 11 10 10 11 11 11 10 10
12 15 19 23 22 21 20 19 18 17 15 14 14 13 12 12 11 11 11 10 10 10 10 10 10 10 10 10 10 10 10 9 9 9 9 9 9 9 10 10 9 9 9
12 14 17 23 22 21 20 19 18 17 16 15 14 13 12 12 11 11 10 10 10 9 9 9 9 9 9 9 9 8 8 7 6 7 7 8 8 8 9 9 9 8 8
10 11 13 18 20 21 20 19 19 17 16 15 14 13 13 12 11 11 10 9 9 9 8 8 8 7 7 7 7 7 7 6 5 5 5 7 7 8 8 9 9 9 9
9 8 9 13 16 17 19 20 19 18 17 16 14 14 13 12 11 10 9 9 8 7 7 6 6 6 6 6 6 6 6 6 5 4 5 7 6 7 8 8 9 9 9
11 8 8 10 13 15 16 18 19 18 17 16 14 14 13 11 10 9 9 8 7 6 5 5 4 5 5 6 6 6 6 5 4 4 5 6 6 7 7 8 8 9 9
17 13 9 9 11 14 15 15 16 15 15 15 14 14 13 11 10 9 8 7 6 5 3 3 3 5 5 5 6 6 5 5 4 4 5 6 7 7 7 8 8 9 8
17 15 13 11 12 13 11 12 12 13 13 14 15 15 13 11 9 8 6 4 3 2 2 2 4 4 4 4 5 5 5 4 4 4 6 7 6 6 7 7 8 8 8
15 17 14 13 11 12 12 11 11 11 11 12 14 16 13 9 7 7 5 4 3 2 1 1 2 3 3 4 4 4 4 4 4 4 5 6 6 6 7 7 7 8 8
16 17 16 15 14 12 10 10 10 11 12 13 14 15 15 10 7 7 6 5 5 4 3 1 0 1 2 3 4 3 3 4 4 4 5 5 5 5 6 6 7 7 8
18 18 17 17 15 13 11 9 9 12 13 14 14 15 16 13 10 8 6 6 6 6 5 3 2 1 1 2 3 3 3 4 4 4 4 4 4 5 5 6 7 7 8
18 17 18 18 16 15 13 12 11 13 14 13 14 16 16 15 13 10 6 5 7 7 5 3 2 1 0 1 2 3 3 4 3 3 2 3 4 5 6 6 7 7 8
14 16 18 16 17 17 15 12 11 13 14 13 15 15 17 16 15 11 7 6 8 7 5 3 2 1 0 1 1 2 3 3 3 2 2 2 3 4 5 6 7 7 8
16 17 18 18 19 19 16 12 11 12 12 13 14 15 16 17 16 13 9 8 9 7 4 3 2 2 1 1 1 2 2 2 2 2 2 3 3 4 5 6 7 7 8
14 15 17 18 18 16 13 10 8 9 9 11 13 15 17 16 17 14 9 9 9 5 4 3 3 2 1 1 1 2 2 2 2 2 2 3 3 3 4 5 6 7 7
13 15 17 18 17 15 14 13 12 12 11 10 11 15 17 17 17 14 9 8 8 6 6 6 4 3 1 1 1 2 3 2 2 2 2 2 3 3 3 3 4 5 6
16 17 18 18 18 18 16 15 11 9 8 8 7 12 16 17 17 15 11 8 8 6 6 6 4 3 2 2 2 1 2 4 2 2 2 1 1 2 3 4 4 5 5
15 18 17 19 19 19 16 10 8 6 5 6 9 10 12 16 17 15 14 10 9 8 8 8 7 6 4 2 2 3 2 3 3 3 2 1 2 2 3 4 4 5 5
16 15 16 17 17 17 16 15 16 13 12 12 10 10 10 14 15 16 14 13 10 8 8 8 7 5 5 4 2 1 2 3 2 3 3 2 3 3 3 3 4 5 5
12 13 14 14 15 16 17 18 18 14 11 8 7 10 10 10 12 14 14 12 10 8 9 8 7 7 5 5 4 3 2 1 2 3 4 4 3 3 3 4 4 5 5
8 10 11 13 15 16 18 18 18 17 13 11 10 11 10 8 9 11 12 12 11 9 9 9 8 9 7 6 5 4 4 4 4 4 5 4 4 4 3 3 4 5 5
Wind_Direction
188 182 171 159 154 151 147 142 137 129 122 117 111 107 104 102 100 96 91 86 83 80 79 80 80 79 77 74 73 72 70 68 66 63 61 62 64 62 60 58 54 49 51
159 172 168 159 155 152 148 142 138 132 126 120 114 110 107 104 102 99 94 88 85 82 81 81 80 80 80 77 75 75 73 71 68 65 58 52 59 63 61 59 57 54 52
152 167 166 161 157 152 147 143 139 135 130 125 119 115 111 106 102 100 95 91 88 85 83 82 82 82 80 78 77 77 74 73 70 63 52 42 46 62 61 59 57 54 52
155 162 164 163 158 154 149 145 142 139 134 130 126 122 118 113 107 102 98 95 93 90 87 86 86 85 83 80 79 78 75 72 69 59 47 38 37 59 58 57 55 54 51
153 160 165 163 161 158 154 151 147 143 139 136 133 129 125 121 114 109 104 100 98 95 92 90 89 87 85 82 80 79 77 72 65 54 43 33 29 54 56 54 51 50 48
152 160 166 165 164 161 157 154 151 148 145 143 140 136 131 126 121 115 110 105 102 99 96 93 91 88 85 81 80 79 77 73 63 52 39 28 20 46 52 49 46 44 41
155 160 169 167 165 163 160 158 156 154 152 149 146 142 136 131 126 121 117 113 108 104 99 95 92 89 85 81 79 77 75 71 63 48 33 19 16 40 44 40 35 33 31
156 160 170 168 167 166 164 162 161 160 157 155 151 147 142 138 133 130 126 121 115 108 102 97 93 90 86 82 78 73 69 65 58 38 20 5 11 28 34 30 24 20 18
153 159 170 170 170 170 169 167 165 164 161 159 156 152 148 145 141 137 133 128 121 114 107 100 95 89 84 78 71 65 62 63 50 24 2 349 357 13 20 18 13 8 6
157 164 170 168 168 171 172 170 169 168 165 164 161 155 151 150 148 143 140 136 130 122 113 105 94 83 73 64 57 52 55 50 32 7 345 336 347 0 6 7 5 359 359
175 178 173 167 167 168 169 172 170 170 169 166 162 157 151 147 146 144 146 147 142 133 122 109 90 71 58 48 40 41 45 33 12 350 334 330 341 349 355 358 360 357 359
187 187 181 173 168 167 171 171 169 168 169 165 161 157 152 150 150 149 156 157 151 141 125 95 63 54 45 30 24 30 27 12 357 337 327 326 332 340 347 353 356 359 3
187 187 186 181 173 170 169 167 166 165 164 163 162 160 156 154 153 151 156 162 154 133 91 53 41 36 28 17 12 13 9 1 347 329 323 326 331 339 345 353 358 2 9
186 192 188 183 178 175 171 170 168 166 167 167 169 167 161 157 157 160 166 175 173 165 137 62 31 14 13 10 5 2 357 348 335 325 322 329 337 342 347 352 358 3 9
191 193 191 187 185 180 174 174 175 175 175 175 174 175 173 168 169 173 181 187 193 192 185 183 256 352 357 357 360 359 351 344 335 329 327 332 339 347 352 357 359 3 9
197 196 192 192 190 184 184 183 181 181 179 178 180 182 181 179 177 178 182 191 202 203 199 198 206 221 339 349 350 350 342 342 339 335 334 344 357 4 8 8 8 10 8
198 195 194 194 191 190 190 187 184 185 182 183 186 187 186 186 183 182 183 195 207 205 196 184 175 138 18 1 345 344 346 344 344 340 350 5 11 16 19 17 12 10 6
194 194 195 194 194 195 194 190 187 187 186 189 188 189 190 190 188 184 186 199 201 190 181 167 158 148 1 334 324 334 347 348 356 2 27 34 37 32 27 23 16 9 2
196 194 194 195 195 196 195 191 188 187 190 191 190 191 193 193 191 188 193 199 190 178 175 170 156 158 195 270 305 345 356 360 360 27 44 48 51 49 39 26 20 11 3
197 194 195 196 197 194 192 187 186 189 194 193 193 196 193 194 193 191 193 192 181 171 175 172 164 152 156 186 18 10 360 356 21 38 35 43 51 51 40 26 15 5 358
195 194 195 196 195 189 191 192 194 199 198 198 198 196 194 195 193 192 192 185 180 184 186 175 161 157 160 125 80 359 349 0 26 23 27 44 36 29 30 13 357 350 343
199 198 196 197 194 192 195 195 196 191 194 196 190 194 196 196 194 195 191 188 185 184 179 177 167 156 153 134 136 99 343 334 330 353 354 8 348 351 349 337 335 332 330
202 200 198 198 195 195 190 181 169 157 155 179 193 197 198 197 196 195 193 188 185 184 189 188 180 170 175 172 153 151 163 242 294 312 312 322 319 311 313 320 316 317 321
206 200 198 196 195 193 184 183 182 189 196 198 193 195 192 195 195 195 192 190 187 187 189 189 184 178 166 177 172 156 168 167 185 296 306 299 299 282 285 294 296 296 304
200 194 195 191 192 189 187 189 190 196 198 183 174 183 190 192 194 194 192 190 189 191 191 182 179 181 180 177 175 166 161 144 169 197 272 298 306 279 268 269 272 276 282
188 186 185 186 190 188 189 190 194 195 185 175 180 188 191 191 193 193 191 191 191 190 191 190 187 184 186 182 181 175 172 174 192 193 230 261 280 286 284 273 256 255 263
Height
1516 1519 1523 1525 1528 1530 1532 1533 1535 1536 1537 1538 1539 1540 1541 1541 1542 1542 1543 1543 1543 1543 1544 1544 1544 1544 1544 1544 1544 1544 1544 1544 1544 1544 1544 1544 1544 1543 1543 1543 1543 1544 1544
1514 1518 1522 1525 1528 1530 1532 1534 1535 1537 1538 1539 1540 1541 1541 1542 1542 1543 1543 1544 1544 1544 1544 1545 1545 1545 1545 1545 1545 1545 1545 1545 1545 1545 1545 1544 1544 1544 1544 1544 1544 1543 1543
1514 1517 1521 1525 1528 1530 1532 1534 1536 1537 1538 1539 1540 1541 1542 1542 1543 1543 1544 1544 1544 1545 1545 1545 1545 1546 1546 1546 1546 1546 1546 1546 1546 1546 1546 1545 1545 1545 1545 1544 1544 1544 1543
1514 1517 1521 1524 1527 1530 1532 1534 1536 1537 1539 1540 1541 1542 1542 1543 1543 1544 1544 1545 1545 1545 1546 1546 1546 1547 1547 1547 1547 1547 1547 1547 1547 1547 1547 1547 1546 1547 1546 1545 1545 1544 1544
1515 1518 1521 1524 1527 1530 1532 1534 1536 1538 1539 1540 1541 1542 1543 1543 1544 1544 1545 1545 1546 1546 1546 1547 1547 1547 1548 1548 1548 1548 1548 1548 1548 1548 1548 1548 1548 1548 1547 1546 1546 1545 1545
1515 1518 1521 1524 1527 1530 1532 1534 1536 1538 1539 1540 1541 1542 1543 1544 1544 1545 1545 1546 1546 1547 1547 1548 1548 1549 1549 1549 1549 1549 1549 1549 1549 1549 1549 1549 1549 1549 1548 1548 1547 1546 1546
1515 1518 1521 1524 1527 1529 1532 1534 1536 1538 1539 1540 1541 1542 1543 1544 1545 1545 1546 1546 1547 1548 1548 1549 1549 1550 1550 1550 1550 1550 1550 1550 1550 1550 1550 1550 1549 1550 1549 1548 1548 1547 1546
1515 1518 1521 1524 1527 1529 1532 1534 1536 1537 1539 1540 1541 1542 1543 1544 1545 1546 1546 1547 1548 1548 1549 1550 1550 1550 1551 1551 1551 1551 1551 1551 1551 1551 1551 1550 1550 1550 1550 1549 1548 1547 1547
1516 1518 1521 1524 1526 1529 1531 1533 1535 1537 1539 1540 1541 1543 1544 1545 1545 1546 1547 1548 1548 1549 1550 1550 1551 1551 1552 1552 1552 1552 1552 1552 1552 1551 1551 1550 1550 1550 1550 1549 1548 1547 1547
1516 1518 1520 1523 1526 1528 1531 1533 1535 1537 1538 1540 1541 1542 1544 1545 1546 1547 1547 1548 1549 1550 1551 1551 1552 1552 1552 1553 1553 1553 1553 1552 1552 1552 1551 1550 1550 1550 1549 1548 1548 1547 1546
1514 1517 1519 1522 1524 1527 1530 1532 1534 1536 1538 1539 1541 1542 1543 1545 1546 1547 1548 1549 1549 1550 1551 1552 1552 1553 1553 1553 1553 1553 1553 1552 1552 1551 1551 1550 1550 1549 1549 1548 1547 1546 1545
1510 1514 1517 1520 1523 1526 1528 1531 1533 1535 1537 1538 1540 1542 1543 1544 1546 1547 1548 1549 1550 1550 1551 1552 1552 1553 1553 1553 1553 1553 1553 1552 1552 1551 1550 1550 1549 1549 1548 1547 1546 1545 1544
1508 1511 1514 1518 1521 1524 1526 1529 1531 1533 1535 1537 1539 1541 1542 1544 1545 1546 1547 1549 1549 1550 1551 1552 1552 1553 1553 1553 1553 1553 1552 1552 1551 1551 1550 1549 1548 1548 1547 1546 1545 1544 1543
1505 1508 1512 1515 1518 1521 1524 1527 1529 1531 1533 1536 1538 1539 1541 1543 1544 1546 1547 1548 1549 1550 1551 1552 1552 1553 1553 1553 1553 1552 1552 1551 1550 1550 1549 1548 1547 1546 1546 1545 1544 1543 1542
1502 1505 1508 1512 1515 1519 1522 1525 1527 1529 1532 1534 1536 1538 1540 1542 1543 1545 1546 1548 1549 1550 1551 1551 1552 1552 1552 1552 1552 1551 1551 1550 1549 1549 1548 1547 1546 1545 1544 1544 1543 1542 1541
1499 1502 1505 1508 1512 1515 1519 1521 1524 1527 1529 1532 1534 1536 1538 1540 1542 1544 1545 1547 1548 1549 1550 1551 1551 1552 1552 1551 1551 1550 1550 1549 1548 1547 1546 1546 1545 1544 1543 1542 1541 1540 1539
1495 1498 1501 1505 1509 1512 1515 1518 1521 1524 1527 1529 1532 1534 1536 1539 1541 1542 1544 1546 1547 1548 1549 1550 1550 1551 1551 1550 1550 1549 1548 1548 1547 1546 1545 1544 1544 1543 1542 1541 1540 1539 1538
1491 1494 1498 1501 1504 1508 1511 1514 1518 1521 1523 1526 1529 1531 1534 1536 1539 1541 1543 1544 1546 1547 1548 1548 1549 1549 1549 1549 1549 1548 1547 1546 1545 1545 1544 1543 1542 1542 1541 1539 1538 1537 1536
1486 1490 1493 1496 1499 1503 1507 1510 1514 1517 1520 1523 1526 1528 1531 1534 1536 1538 1541 1542 1544 1545 1546 1547 1547 1548 1548 1548 1547 1546 1546 1545 1544 1543 1543 1542 1541 1540 1539 1538 1537 1535 1534
1481 1484 1488 1491 1494 1498 1502 1506 1509 1513 1516 1519 1522 1525 1528 1531 1533 1536 1538 1540 1542 1543 1544 1545 1546 1546 1546 1546 1546 1545 1544 1543 1542 1542 1541 1541 1540 1539 1538 1537 1535 1534 1532
1475 1478 1481 1485 1488 1492 1496 1499 1503 1506 1510 1513 1517 1520 1524 1527 1530 1533 1535 1537 1539 1540 1541 1542 1543 1544 1544 1544 1544 1543 1542 1541 1541 1540 1540 1539 1538 1537 1536 1535 1533 1532 1530
1468 1471 1474 1477 1482 1485 1489 1492 1496 1501 1505 1509 1512 1516 1520 1523 1526 1529 1531 1533 1535 1537 1538 1540 1541 1541 1542 1542 1542 1542 1541 1541 1539 1539 1538 1537 1537 1536 1534 1533 1531 1529 1527
1460 1463 1467 1471 1475 1479 1483 1488 1492 1497 1500 1504 1507 1510 1514 1518 1522 1524 1527 1530 1532 1534 1535 1536 1538 1539 1539 1540 1540 1541 1539 1538 1537 1537 1536 1535 1534 1533 1532 1530 1529 1527 1525
1453 1457 1461 1465 1468 1472 1477 1481 1484 1488 1491 1495 1500 1505 1510 1513 1517 1520 1523 1526 1528 1530 1532 1533 1534 1536 1536 1537 1537 1537 1538 1537 1536 1534 1534 1533 1532 1531 1529 1528 1526 1524 1522
1447 1451 1454 1458 1462 1466 1470 1474 1478 1482 1486 1491 1496 1500 1505 1508 1512 1515 1518 1521 1523 1525 1527 1529 1530 1532 1533 1533 1534 1534 1534 1533 1533 1532 1530 1529 1528 1527 1526 1524 1523 1521 1519
1441 1445 1448 1452 1456 1460 1464 1468 1472 1476 1481 1485 1490 1494 1499 1503 1506 1510 1513 1516 1519 1521 1523 1525 1526 1527 1528 1529 1530 1530 1530 1530 1529 1529 1527 1525 1524 1523 1522 1520 1519 1517 1515